Content
SEND FEEDBACK

Daily
Averages
Monthly
Summary
United Kingdom

LONDON, ENGLAND


Home > Europe > United Kingdom > England
Elevation: 203 feet     Latitude: 51 09N     Longitude: 000 11W

WEATHER
 
SELECT A DAY
Number of Records: 296,286;   Date Range: 7/1/96 - 9/30/14
 
SHARE

PRINT THIS DATA

[ ← Previous Day ]
WEATHER ALMANAC - JULY 2, 2014
[ Next Day → ]
[ °C ]   °F
Weather ElementAverageHighLow
Temperature61.7 °F73.4 °F (3:20 pm)48.2 °F (4:20 am)
Dewpoint51 °F55.4 °F (4:20 pm)46.4 °F (3:20 am)
Humidity70 %94 % (3:50 am)44 % (3:20 pm)
Barometer30.20 in30.21 in (6:50 am)30.18 in (12:50 am)
Wind Speed4.5 mph10.4 mph (6:50 pm)
Weather ElementAverage
Visibility6.2 mi
Wind DirectionESE (96.6 °)

Weather ElementTotal
Precipitation---
Heating Degree Days4.2 (Base 65)
Growing Degree Days10.8 (Base 50)
Averaged from 47 records on July 2, 2014
WEATHER CONDITIONS BREAKOUT
WIND DIRECTION BREAKOUT
WEATHER BY HOUR - JULY 2, 2014
[ °C ]   °F
Local TimeTemperatureDewpointHumidityBarometerVisibilityWind DirectionWind SpeedGust SpeedPrecipitationEventsConditions
12:50 AM51.8 °F48.2 °F88 %30.18 inENE (70°)2.3 mphClear
1:20 AM53.6 °F48.2 °F82 %30.18 inENE (70°)3.5 mphClear
1:50 AM51.8 °F48.2 °F88 %30.18 inNE (50°)3.5 mphClear
2:20 AM51.8 °F48.2 °F88 %30.18 inEast (80°)2.3 mphClear
2:50 AM51.8 °F48.2 °F88 %30.18 inCalmClear
3:20 AM50.0 °F46.4 °F87 %30.18 inEast (100°)2.3 mphClear
3:50 AM50.0 °F48.2 °F94 %30.18 inCalmClear
4:20 AM48.2 °F46.4 °F93 %30.18 inCalmClear
4:50 AM50.0 °F48.2 °F94 %30.18 inESE (110°)2.3 mphClear
5:20 AM48.2 °F46.4 °F93 %30.18 inENE (70°)2.3 mphClear
5:50 AM50.0 °F48.2 °F94 %30.18 inNNE (30°)3.5 mphClear
6:20 AM51.8 °F50.0 °F94 %30.18 inEast (90°)3.5 mphClear
6:50 AM53.6 °F50.0 °F88 %30.21 inVariable2.3 mphClear
7:20 AM55.4 °F50.0 °F82 %30.21 inVariable2.3 mphClear
7:50 AM57.2 °F51.8 °F82 %30.21 inVariable2.3 mphClear
8:20 AM60.8 °F51.8 °F72 %30.21 inVariable3.5 mphClear
8:50 AM62.6 °F51.8 °F68 %30.21 inVariable3.5 mphClear
9:20 AM64.4 °F51.8 °F64 %30.21 in6.2 miENE (70°)4.6 mphPartly Cloudy
9:50 AM64.4 °F51.8 °F64 %30.21 in6.2 miVariable3.5 mphPartly Cloudy
10:20 AM66.2 °F51.8 °F60 %30.21 in6.2 miNE (40°)4.6 mphPartly Cloudy
10:50 AM64.4 °F51.8 °F64 %30.21 in6.2 miVariable3.5 mphPartly Cloudy
11:20 AM68.0 °F51.8 °F56 %30.21 in6.2 miVariable4.6 mphPartly Cloudy
11:50 AM66.2 °F50.0 °F56 %30.21 in6.2 miVariable4.6 mphPartly Cloudy
12:20 PM68.0 °F50.0 °F52 %30.21 in6.2 miVariable3.5 mphPartly Cloudy
12:50 PM69.8 °F50.0 °F49 %30.21 in6.2 miVariable5.8 mphScattered Clouds
1:20 PM69.8 °F50.0 °F49 %30.21 in6.2 miWNW (300°)6.9 mphPartly Cloudy
1:50 PM71.6 °F50.0 °F46 %30.21 in6.2 miVariable3.5 mphPartly Cloudy
2:20 PM71.6 °F50.0 °F46 %30.21 inWest (280°)4.6 mphClear
2:50 PM69.8 °F48.2 °F46 %30.21 inVariable5.8 mphClear
3:20 PM73.4 °F50.0 °F44 %30.21 inVariable3.5 mphClear
3:50 PM73.4 °F50.0 °F44 %30.21 inVariable4.6 mphClear
4:20 PM71.6 °F55.4 °F57 %30.18 in6.2 miSW (220°)8.1 mphPartly Cloudy
4:50 PM73.4 °F53.6 °F50 %30.18 in6.2 miSW (220°)6.9 mphPartly Cloudy
5:20 PM71.6 °F55.4 °F57 %30.18 in6.2 miWSW (250°)6.9 mphPartly Cloudy
5:50 PM69.8 °F55.4 °F60 %30.18 in6.2 miSSW (200°)9.2 mphPartly Cloudy
6:20 PM68.0 °F55.4 °F64 %30.18 inSSW (210°)9.2 mphClear
6:50 PM66.2 °F53.6 °F64 %30.18 inSouth (190°)10.4 mphClear
7:20 PM64.4 °F53.6 °F68 %30.21 inSSW (200°)8.1 mphClear
7:50 PM64.4 °F53.6 °F68 %30.21 inSSW (200°)8.1 mphClear
8:20 PM62.6 °F53.6 °F72 %30.21 inSSW (200°)6.9 mphClear
8:50 PM62.6 °F53.6 °F72 %30.21 inSSW (210°)6.9 mphClear
9:20 PM62.6 °F53.6 °F72 %30.21 inSSW (200°)6.9 mphClear
9:50 PM60.8 °F53.6 °F77 %30.21 inSSW (210°)5.8 mphClear
10:20 PM60.8 °F51.8 °F72 %30.21 inSSW (210°)4.6 mphClear
10:50 PM60.8 °F51.8 °F72 %30.21 inSSW (210°)5.8 mphClear
11:20 PM60.8 °F51.8 °F72 %30.21 inVariable2.3 mphClear
11:50 PM59.0 °F51.8 °F77 %30.21 inWSW (250°)2.3 mphClear
Hourly data recorded from EGKK, located miles away from London, England







STORIES FROM OUR PARTNERS